{"data":{"norad_id":58033,"epoch":"2026-09-20T10:47:44.647584Z","epoch_age_seconds":141956,"freshness":"FRESH","line1":"1 58033U 23156F   26263.44982231  .00000732  00000+0  32806-4 0  9992","line2":"2 58033  53.1613 341.9705 0001209  75.4886 284.6251 15.34393578164871","mean_motion":15.34393578,"eccentricity":0.0001209,"inclination_deg":53.1613,"raan_deg":341.9705,"arg_perigee_deg":75.4886,"mean_anomaly_deg":284.6251,"bstar":3.2806e-5,"rev_number":16487,"period_min":93.848150868629,"perigee_km":461.89526791832,"apogee_km":463.54938770379,"semimajor_km":6840.8593278111,"source":"CELESTRAK","updated_at":"2026-09-21T09:00:33.758945Z"}}